Regional Weather Roundup
Issued by NWS

Home | Current Version | Previous Version | Text Only | Print | Product List | Glossary Off
Versions: 1 2 3 4 5 6 7 8 9 10 11 12 13 14 15 16 17 18 19 20 21 22 23 24 25 26 27 28 29 30 31 32 33 34 35 36 37 38 39 40 41 42 43 44 45 46 47 48 49 50

000
ASUS43 KOAX 050702
RWRNE

WEATHER ROUNDUP FOR NEBRASKA
NATIONAL WEATHER SERVICE OMAHA NE
200 AM CDT WED AUG 05 2015

NOTES: SATELLITE DATA IS BEING USED TO AUGMENT CLOUD COVER ABOVE
       12000 FEET.
       "FAIR" INDICATES FEW OR NO CLOUDS BELOW 12,000 FEET WITH NO
       SIGNIFICANT WEATHER AND/OR OBSTRUCTIONS TO VISIBILITY.

  * THESE STATIONS DO NOT REPORT WEATHER SUCH AS RAIN...SNOW OR FOG.

NEZ001>004-019>022-054>056-050800-
NEBRASKA PANHANDLE

CITY           SKY/WX    TMP DP  RH WIND       PRES   REMARKS
SCOTTSBLUFF    PTCLDY    62  62 100 SE3       30.09R FOG
ALLIANCE       PTCLDY    60  58  92 CALM      30.07S
CHADRON        MOCLDY    65  60  84 W3        30.03S
KIMBALL        CLEAR     57  55  92 W6        30.12S
SIDNEY         CLEAR     58  57  97 CALM      30.11S
$$

NEZ057>060-069>072-079>082-050800-
SOUTHWEST NEBRASKA

CITY           SKY/WX    TMP DP  RH WIND       PRES   REMARKS
NORTH PLATTE   PTCLDY    61  60  97 CALM      30.02S
IMPERIAL       CLEAR     61  58  90 NW5       30.04F
LEXINGTON      MOCLDY    64  63  96 E7        30.01F FOG
MCCOOK         PTCLDY    61  60  97 N5        30.02S
OGALLALA       CLEAR     61  60  99 W3        30.05S
$$

NEZ005>010-023>029-035>040-094-050800-
NORTH CENTRAL NEBRASKA

CITY           SKY/WX    TMP DP  RH WIND       PRES   REMARKS
AINSWORTH      CLOUDY    66  65  97 CALM      30.02S
BROKEN BOW     CLOUDY    65  63  93 CALM      30.02R
O`NEILL        CLOUDY    66  65  94 SE5       30.00S
ORD            CLOUDY    65  63  93 S5        29.99R
$$

NEZ041-046>049-061>064-073>077-083>087-050800-
SOUTH CENTRAL NEBRASKA

CITY           SKY/WX    TMP DP  RH WIND       PRES   REMARKS
GRAND ISLAND   CLOUDY    65  64  97 CALM      29.99F
AURORA         CLOUDY    67  67 100 S3        29.99S
HASTINGS       CLOUDY    65  64  97 CALM      29.99S
HEBRON         LGT RAIN  67  64  90 CALM      29.98R
HOLDREGE       MOCLDY    63  62  96 CALM      30.00F
KEARNEY *      MOCLDY    63  61  94 CALM      30.00F
YORK           LGT RAIN  66  66 100 CALM      29.99S
$$

NEZ011>018-030>034-042>045-050800-
NORTHEAST NEBRASKA

CITY           SKY/WX    TMP DP  RH WIND       PRES   REMARKS
NORFOLK        CLOUDY    68  64  87 E8        29.99S
ALBION         CLOUDY    67  64  90 E6        29.99S
BLAIR          MOCLDY    66  63  90 E7        29.98S
COLUMBUS *     CLOUDY    68  63  83 E6        29.98F
FREMONT        CLOUDY    69  65  90 E8        29.99S
TEKAMAH        CLOUDY    70  65  84 E3        29.98F
WAYNE          CLOUDY    66  64  94 E7        29.99F
$$

NEZ050>053-065>068-078-088>093-050800-
SOUTHEAST NEBRASKA

CITY           SKY/WX    TMP DP  RH WIND       PRES   REMARKS
LINCOLN        CLOUDY    73  70  90 E6        29.98R
OMAHA EPPLEY   MOCLDY    68  65  90 E6        29.98S
BEATRICE       CLOUDY    71  69  94 CALM      29.97S
FALLS CITY     MOCLDY    69  68  96 SE3       29.98R
NEBRASKA CITY  MOCLDY    68  67  98 CALM      29.99R
PLATTSMOUTH    MOCLDY    68  67  97 SE3       29.99R
$$

NEZ044-045-051>053-067-050800-
OMAHA AREA

CITY           SKY/WX    TMP DP  RH WIND       PRES   REMARKS
OMAHA EPPLEY   MOCLDY    68  65  90 E6        29.98S
BLAIR          MOCLDY    66  63  90 E7        29.98S
FREMONT        CLOUDY    69  65  90 E8        29.99S
MILLARD        MOCLDY    69  67  92 CALM      29.98S
OFFUTT AFB     MOCLDY    67  66  96 NE5       29.97S
PLATTSMOUTH    MOCLDY    68  67  97 SE3       29.99R
WAHOO          CLOUDY    69  68  95 CALM      29.98S
$$


USA.gov is the U.S. government's official web portal to all federal, state and local government web resources and services.